Regional Weather Roundup
Issued by NWS Pendleton, OR

Home | Current Version | Previous Version | Text Only | Print | Product List | Glossary On
Versions: 1 2 3 4 5 6 7 8 9 10 11 12 13 14 15 16 17 18 19 20 21 22 23 24 25 26 27 28 29 30 31 32 33 34 35 36 37 38 39 40 41 42 43 44 45 46 47 48 49 50
523
ASUS46 KPDT 201404
RWRPDT
PENDLETON REGIONAL WEATHER ROUNDUP
NATIONAL WEATHER SERVICE PENDLETON OREGON
600 AM PST FRI JAN 20 2017

NOTE: FAIR INDICATES FEW OR NO CLOUDS BELOW 12,000 FEET WITH NO
SIGNIFICANT WEATHER AND/OR OBSTRUCTIONS TO VISIBILITY.

# INDICATES UNOFFICIAL STATION AND DATA

WAZ520-201510-
EAST SLOPES OF WASHINGTON CASCADES

CITY            SKY/WX      TMP DP  RH  WIND    PRES   REMARKS
#CLE ELUM HS    N/A         30  29  96  S7      29.32F
#CLE ELUM LAKE  N/A         29  28  96  SE1     29.36F
#GLENWOOD       N/A         30  29  96  CALM    29.30F
#NELSON 3SW     N/A         28  27  96  CALM    29.57F
#NILE           N/A         30  29  96  E1      28.63F
#RONALD 2NW     N/A         27  N/A N/A CALM    29.20F
#TEANAWAY 4NE   N/A         30  29  96  E1      N/A
#TROUT LAKE 1NE N/A         31  30  96  CALM    29.30F
#TROUT LAKE 1E  N/A         30  29  96  CALM    29.27F
$$

WAZ521-201510-
SIMCOE HIGHLANDS

CITY            SKY/WX      TMP DP  RH  WIND    PRES   REMARKS
#BICKLETON HS   N/A         28  26  92  N5      28.95F
#CENTERVILLE 1SWN/A         35  30  82  E7      29.27F
#GOLDENDALE 1NE N/A         38  21  50  N8      N/A
#GOLDENDALE 4W  N/A         35  12  38  E5      29.30F
#GOODNOE HILLS  N/A         26  22  85  E1      N/A
#LYLE 6NE       N/A         30  29  96  N1      29.27F
#PITT 4SE       N/A         31  28  88  E10     29.31F
$$

WAZ026-201510-
KITTITAS VALLEY

CITY            SKY/WX      TMP DP  RH  WIND    PRES   REMARKS
ELLENSBURG AP   CLOUDY      30  28  92  CALM    29.36F
#ELLENSBURG CWU N/A         28  27  96  CALM    29.37F
#ELLENSBURG 3NE N/A         28  27  96  CALM    27.48F
#ELLENSBURG 1E  N/A         27  N/A N/A CALM    N/A
#KITTITAS 4N    N/A         27  25  92  CALM    29.41F
#KITTITAS 3S    N/A         27  26  96  CALM    29.42F
#THORP 6N       N/A         26  25  96  SE10    29.41F
$$

WAZ027-201510-
YAKIMA VALLEY

CITY            SKY/WX      TMP DP  RH  WIND    PRES   REMARKS
SUNNYSIDE AP    FOG         N/A N/A N/A CALM    29.37F VSB<1/4
YAKIMA AIRPORT  CLOUDY      26  24  92  W5      29.36F FOG
YAKIMA-VAGABOND MOCLDY      24  22  92  CALM    29.33F FOG
#DONALD 2NE     N/A         29  23  78  N12     28.21F WCI 19
#MABTON         N/A         22  21  96  CALM    29.38F
#NACHES 2SW     N/A         29  28  96  CALM    29.35F
#TERRACE HTS    N/A         27  26  96  CALM    29.39F
#TOPPENISH      N/A         21  19  92  CALM    29.34F
#W YAKIMA       N/A         26  25  96  CALM    29.41F
#WHITE SWAN 5E  N/A         19  17  92  CALM    29.44F
#WILEY CITY 3W  N/A         23  19  84  CALM    29.32F
$$

WAZ028-201510-
LOWER COLUMBIA BASIN...WASHINGTON

CITY            SKY/WX      TMP DP  RH  WIND    PRES   REMARKS
PASCO           FOG         26  26  100 NW5     29.41F VSB 3/4
PROSSER AWOS    N/A         23  23  100 CALM    29.41F
RICHLAND AWOS   FRZFOG      27  27  100 NW3     29.41F VSB 1/4
#BENTON CITY    N/A         27  26  96  SE2     29.33F
#CONNELL 5N     N/A         22  21  96  NW2     29.41F
#CONNELL 5NW    N/A         21  19  92  N5      29.39F
#ELTOPIA 6NW    N/A         27  26  96  CALM    28.37F
#KAHLOTUS       N/A         33  31  92  CALM    29.40F
#KENNEWICK 3S   N/A         27  26  96  CALM    29.42F
#PATERSON       N/A         23  22  96  CALM    29.35F
#SAGEMOOR 2W    N/A         26  24  92  NW7     29.27F
#TOUCHET 2S     N/A         25  24  96  W6      29.39F
#WEST PASCO     N/A         28  26  92  W1      29.35F
$$

WAZ029-201510-
FOOTHILLS OF THE BLUES...WASHINGTON

CITY            SKY/WX      TMP DP  RH  WIND    PRES   REMARKS
WALLA WALLA AP  MOCLDY      40  28  62  W6      29.34F
#CLYDE 6NW      N/A         35  30  82  CALM    29.39F
#DAYTON SCHOOL  N/A         44  26  49  NE7     29.41F
#LOWDEN 2SE     N/A         24  23  96  W5      29.35F
#PLEASANT VIEW 1N/A         32  30  92  CALM    29.44F
#PRESCOTT       N/A         35  30  82  CALM    29.38F
#WHITMAN COLLEGEN/A         39  30  70  W1      29.41F
#WAITSBURG 5S   N/A         42  31  65  SE3     29.46F
#WAITSBURG 8N   N/A         39  N/A N/A N10     29.23S
#WALLA WALLA 5E N/A         46  32  58  SE30G40 N/A    WCI 37
#WHITMAN MISSIONN/A         25  23  92  CALM    29.40F
$$

WAZ030-201510-
BLUE MOUNTAINS...WASHINGTON

CITY            SKY/WX      TMP DP  RH  WIND    PRES   REMARKS
#DIXIE 5SE      N/A         40  27  59  E31G44  29.21F WCI 28
#SKI BLUEWOOD   N/A         27  24  88  CALM    29.33F
$$

ORZ009-041-WAZ024-201510-
COLUMBIA RIVER GORGE

CITY            SKY/WX      TMP DP  RH  WIND    PRES   REMARKS
HOOD RIVER AP   CLOUDY      32  32  100 CALM    29.31F FOG
THE DALLES AP   FOG         30  30  100 CALM    29.32F VSB 3/4
#ARLINGTON AIRPON/A         29  27  92  NE12    29.34F WCI 19
#ARLINGTON HS   N/A         24  22  92  NW2     29.28F
#CELILO DOT     N/A         30  28  92  W2      N/A
#LYLE           N/A         33  32  96  N5      29.34F
#MOSIER 1S      N/A         31  28  88  CALM    29.29F
#MURDOCK        N/A         29  28  96  CALM    29.30F
#RUFUS DOT      N/A         27  25  92  SE8     N/A
#SMITHVILLE     N/A         30  29  96  N2      29.28F

$$

ORZ510-201510-
NORTH CENTRAL OREGON

CITY            SKY/WX      TMP DP  RH  WIND    PRES   REMARKS
#ANTELOPE       N/A         37  27  67  E3      29.13F
#CHENOWITH 1W   N/A         29  29  100 E9      N/A
#COW CYN RST AREN/A         36  N/A N/A E8      N/A
#DUFUR 9E       N/A         31  28  88  E15     29.31F WCI 20
#GRASS VALLEY 1SN/A         29  27  92  NE2     29.22F
#KENT DOT       N/A         36  22  56  N3      N/A
#MAUPIN SCHOOL  N/A         28  26  92  CALM    29.33F
#SHANIKO 5WSW   N/A         34  22  61  N16     N/A    WCI 24
#SHANIKO 4NW    N/A         33  26  75  SE17    29.20F WCI 22
#TYGH VALLEY 2NEN/A         27  25  92  CALM    29.30F
#WAPANITIA AIRPON/A         28  26  92  CALM    29.30F
#WASCO DOT      N/A         31  28  88  E8      N/A
#WASCO AIRPORT  N/A         28  26  92  E9      29.23
#WASCO 5NE      N/A         29  27  92  N7      29.32F
$$

ORZ511-201510-
CENTRAL OREGON

CITY            SKY/WX      TMP DP  RH  WIND    PRES   REMARKS
BEND AIRPORT    CLOUDY      34  28  78  E10     29.16F
MADRAS AIRPORT  LGT RAIN    36  28  72  S10     29.24F
PRINEVILLE AP   CLOUDY      37  28  70  SE12    29.19F WCI 29
REDMOND AIRPORT CLOUDY      37  27  67  E12     29.17F WCI 29
#ASHWOOD SCHOOL N/A         39  30  70  CALM    29.23F
#BEND 1SW       N/A         32  30  92  SE1     N/A
#BEND-AWBREY    N/A         33  31  92  SE1     29.21F
#BEND-KIM LN    N/A         34  31  89  E6      29.16F
#CULVER         N/A         37  30  75  E3      29.15F
#CULVER 8W      N/A         32  28  85  CALM    29.28F
#MADRAS 4S      N/A         36   3  24  SE15    29.30F WCI 27
#POWELL BUTTE   N/A         35  25  66  S8      29.22F
#PRINEVILLE 3N  N/A         36  30  79  E12     29.24F WCI 28
#WARM SPRINGS   N/A         30  27  88  CALM    29.24F

$$


ORZ509-201510-
EAST SLOPES OF OREGON CASCADES

CITY            SKY/WX      TMP DP  RH  WIND    PRES   REMARKS
SISTERS AWOS    N/A         36  30  79  NE8     29.20F
#BLUE BOX PASS  N/A         29  N/A N/A CALM    N/A
#CAMP SHERMAN   N/A         29  27  92  CALM    29.30F
#LA PINE 4NW    N/A         32  26  78  E2      29.23F
#LAVA BUTTE DOT N/A         34  22  61  SW1     N/A
#SISTERS ODOT   N/A         32  N/A N/A CALM    N/A
#SISTERS 3N     N/A         32  26  78  E9      29.26F
#SUNRIVER       N/A         34  28  78  SW1     29.21F
#SUTTLE LK DOT  N/A         25  25  100 E6      N/A
#TUMALO 3W      N/A         32  30  92  SE7     29.09F
#WANOGA BUTTE D N/A         25  25  100 CALM    N/A

$$

ORZ044-201510-
LOWER COLUMBIA BASIN...OREGON

CITY            SKY/WX      TMP DP  RH  WIND    PRES   REMARKS
HERMISTON       MOCLDY      29  27  92  N9      29.32F FOG
#BOARDMAN SCHOOLN/A         23  22  96  CALM    29.35F
#ECHO 8SW       N/A         24  24  100 VRB1    29.34F
#I-84 EX 198 DOTN/A         41  30  65  N23     N/A    WCI 31
#UMATILLA       N/A         24  21  88  CALM    29.30F
$$

ORZ507-201510-
NORTHERN FOOTHILLS OF THE BLUES

CITY            SKY/WX      TMP DP  RH  WIND    PRES   REMARKS
PENDLETON AIRPT MOCLDY      41  30  65  SE12    29.31F WCI 34
#ADAMS 3WNW     N/A         40  32  73  SE1     29.35F
#ATHENA         N/A         41  31  67  S2      29.36F
#HELIX SCHOOL   N/A         39  32  76  N18G26  29.36F WCI 30
#HELIX 3N       N/A         38  31  76  N9      29.33F
#HOLDMAN 6E     N/A         39  32  76  E6      29.15F
#M-F GROVE ELEM N/A         45  28  51  E3      29.33F
#PENDLETON DNTN N/A         39  28  64  E2      29.33F
#PDT AQUATIC CTRN/A         40  29  64  CALM    29.34F
#PDT SUNRIDGE   N/A         43  31  62  NE5     29.33F
#PENDLETON 7NW  N/A         37  30  75  SE8     32.00S
#PILOT ROCK     N/A         39  28  64  SW7     29.32F
#TUTUILLA       N/A         42  31  65  CALM    29.31F
#WESTON SCHOOL  N/A         41  28  59  S15G30  29.27F WCI 33

$$

ORZ508-201510-
SOUTHERN FOOTHILLS OF THE BLUES

CITY            SKY/WX      TMP DP  RH  WIND    PRES   REMARKS
#AJAX           N/A         29  21  72  N6      27.17S
#CONDON SCHOOL  N/A         38  28  67  SE8     29.26F
#FOSSIL SCHOOL  N/A         39  29  67  SE5     29.24F
#HEPPNER EOC    N/A         42  28  57  SE2     29.20F
#HEPPNER 4NE    N/A         41  27  57  E14     29.28F WCI 33
#LEXINGTON 2SE  N/A         44  29  55  N2      29.23F
#MIKKALO        N/A         29  26  88  CALM    29.41F
#OLEX 4N        N/A         27  26  96  E2      29.30F
#RUGGS 5NE      N/A         38  24  57  NE7     29.40F
#RUGGS 2SW      N/A         39  27  62  SE17G28 29.30F WCI 30

$$

ORZ502-503-201510-
BLUE MOUNTAINS

CITY            SKY/WX      TMP DP  RH  WIND    PRES   REMARKS
MEACHAM         MOCLDY      32  26  78  E8      29.32F
#BATTLE MTN DOT N/A         28  23  81  S8      N/A
#GREENHORN 9SW  N/A         31  29  92  E9      25.62F
#HEPPNER 15SE   N/A         32  25  75  W5      N/A
#LADD CYN SMT   N/A         31  30  96  E10     N/A
#LADD CREEK ODOTN/A         34  30  85  S8      N/A
#LONG CREEK HS  N/A         37  29  72  SE9     N/A
#N POWDER DOT   N/A         32  30  92  SE18    N/A    WCI 21
#PIKES PEAK     N/A         37  26  64  N32G45  27.99S WCI 24
#TOLLGATE       N/A         26  25  96  NE6     29.28F
#TROY SCHOOL    N/A         32  31  96  CALM    29.37F
#UKIAH          N/A         21  19  92  CALM    29.30F
#WESTON 4E      N/A         34  29  82  E20G36  29.33F WCI 23
$$

ORZ505-201510-
JOHN DAY BASIN

CITY            SKY/WX      TMP DP  RH  WIND    PRES   REMARKS
JOHN DAY        PTCLDY      35  28  75  SE6     29.31F
#ANTELOPE 9ESE  N/A         31  28  88  SW5     N/A
#DAYVILLE SCHOOLN/A         39  27  62  SE3     29.31F
#MITCHELL       N/A         38  31  76  SE8     29.44F
#MITCHELL 8NW   N/A         35  27  72  CALM    29.08F
#MONUMENT HS    N/A         27  24  88  S1      29.33F
#MT. VERNON 5SE N/A         33  27  78  NE5     29.26F
#SPRAY SCHOOL   N/A         29  N/A N/A CALM    N/A
$$

ORZ506-201510-
OCHOCO AND JOHN DAY HIGHLANDS

CITY            SKY/WX      TMP DP  RH  WIND    PRES   REMARKS
#HORSE RIDGE DO N/A         31  27  85  E22     N/A    WCI 18
#PAULINA SCHOOL N/A         34  26  72  E9      N/A
#PINE MTN OBS   N/A         24  23  96  CALM    N/A
#PRAIRIE CITY   N/A         34  24  66  E7      29.50F
#SENECA         N/A         29  N/A N/A SW6     N/A
#SENECA 9NW     N/A         27  25  92  CALM    29.38F
$$

ORZ049-201510-
GRANDE RONDE VALLEY

CITY            SKY/WX      TMP DP  RH  WIND    PRES   REMARKS
LA GRANDE       CLOUDY      37  30  75  SE20G28 29.38F WCI 27
#COVE           N/A         30  29  96  CALM    29.47F
#COVE 6NW       N/A         32  28  85  CALM    29.47F
#ELGIN 3N       N/A         30  26  85  CALM    29.43F
#ELGIN 1E       N/A         32  28  85  CALM    N/A
#IMBLER SCHOOL  N/A         31  29  92  N2      29.41F
#ISLAND CITY 4N N/A         44  37  76  E6      29.15F
#LADD CYN DOT   N/A         35  31  85  S5      N/A
#UNION 1S       N/A         35  30  82  SE6     29.47F
$$

ORZ050-201510-
WALLOWA COUNTY

CITY            SKY/WX      TMP DP  RH  WIND    PRES   REMARKS
#IMNAHA SCHOOL  N/A         32  31  96  N3      29.50F
#IMNAHA 10S     N/A         26  24  92  CALM    29.46F
#JOSEPH 3N      N/A         21  16  81  CALM    29.47F
#JOSEPH 3W      N/A         26  22  85  CALM    29.28F
#LOSTINE        N/A         26  25  96  CALM    29.31F
#LOSTINE 3SE    N/A         26  26  100 N2      29.44F
#MT HOWARD 8000 N/A         18  16  92  S10     29.22F
#PROMISE 1S     N/A         28  26  92  CALM    29.59F
#WALLOWA SCHOOL N/A         28  27  96  CALM    29.44F



$$



USA.gov is the U.S. government's official web portal to all federal, state and local government web resources and services.